Back to catalog

TIANQI 39

AliveCommunicationsLEO
NORAD 67478·PAYLOAD·🇨🇳 China

Launched Jan 15, 2026 from Yellow Sea Launch Area

Loading…

Next Passes (next 24 hours)

TLE

FreshSource: Space-Track

Epoch: Sep 14, 2026, 19:45 UTC

1 67478U 26010C   26257.82344245 -.00000008  00000-0  82989-4 0  9994
2 67478  44.9805  38.8111 0012974  55.7721 304.4339 13.99235633 34003

Track TIANQI 39 in real time with AllMySat

Download on the App Store